Stündliche Wetter Kytaihorod

Heute, 10 Mai, Montag

Zeit Temperatur Niederschläge Wind Luftdruck Luftfeuchtigkeit
00:00 +6°C° 0 mm 1 m/S 752 mmHg 77%
01:00 +6°C° 0 mm 1 m/S 752 mmHg 78%
02:00 +6°C° 0 mm 1 m/S 752 mmHg 81%
03:00 +6°C° 0 mm 1 m/S 752 mmHg 81%
04:00 +6°C° 0 mm 1 m/S 752 mmHg 81%
05:00 +6°C° 0 mm 1 m/S 752 mmHg 81%
06:00 +8°C° 0 mm 1 m/S 753 mmHg 73%
07:00 +9°C° 0 mm 2 m/S 753 mmHg 65%
08:00 +12°C° 0 mm 2 m/S 753 mmHg 58%
09:00 +13°C° 0 mm 2 m/S 753 mmHg 52%
10:00 +13°C° 0 mm 3 m/S 753 mmHg 46%
11:00 +14°C° 0 mm 3 m/S 753 mmHg 41%
12:00 +14°C° 0 mm 4 m/S 752 mmHg 40%
13:00 +14°C° 0 mm 4 m/S 752 mmHg 39%
14:00 +15°C° 0 mm 4 m/S 752 mmHg 39%
15:00 +14°C° 0 mm 4 m/S 751 mmHg 42%
16:00 +14°C° 0 mm 4 m/S 751 mmHg 46%
17:00 +14°C° 0 mm 4 m/S 751 mmHg 49%
18:00 +12°C° 0 mm 4 m/S 750 mmHg 55%
19:00 +11°C° 0 mm 4 m/S 750 mmHg 61%
20:00 +9°C° 0 mm 3 m/S 750 mmHg 66%
21:00 +8°C° 0 mm 4 m/S 750 mmHg 68%
22:00 +7°C° 0 mm 4 m/S 750 mmHg 70%
23:00 +7°C° 0 mm 4 m/S 749 mmHg 73%

Morgen, 11 Mai, Dienstag

Zeit Temperatur Niederschläge Wind Luftdruck Luftfeuchtigkeit
00:00 +7°C° 0 mm 5 m/S 749 mmHg 72%
01:00 +7°C° 0 mm 5 m/S 749 mmHg 71%
02:00 +7°C° 0 mm 6 m/S 749 mmHg 70%
03:00 +7°C° 0 mm 6 m/S 748 mmHg 69%
04:00 +7°C° 0 mm 6 m/S 748 mmHg 69%
05:00 +7°C° 0 mm 6 m/S 748 mmHg 68%
06:00 +8°C° 0 mm 6 m/S 747 mmHg 69%
07:00 +9°C° 0 mm 6 m/S 747 mmHg 70%
08:00 +10°C° 0 mm 6 m/S 747 mmHg 71%
09:00 +11°C° 0 mm 6 m/S 747 mmHg 69%
10:00 +14°C° 0 mm 6 m/S 747 mmHg 67%
11:00 +16°C° 0 mm 6 m/S 746 mmHg 65%
12:00 +16°C° 0.1 mm 6 m/S 746 mmHg 67%
13:00 +17°C° 0.1 mm 6 m/S 746 mmHg 69%
14:00 +17°C° 0.1 mm 6 m/S 746 mmHg 71%
15:00 +16°C° 0.4 mm 6 m/S 746 mmHg 77%
16:00 +14°C° 0.4 mm 6 m/S 746 mmHg 82%
17:00 +12°C° 0.4 mm 5 m/S 746 mmHg 87%
18:00 +12°C° 0 mm 5 m/S 746 mmHg 87%
19:00 +10°C° 0 mm 5 m/S 746 mmHg 87%
20:00 +9°C° 0 mm 5 m/S 746 mmHg 87%
21:00 +8°C° 0 mm 5 m/S 746 mmHg 88%
22:00 +7°C° 0 mm 5 m/S 746 mmHg 88%
23:00 +6°C° 0 mm 4 m/S 746 mmHg 88%

übermorgen, 12 Mai, Mittwoch

Zeit Temperatur Niederschläge Wind Luftdruck Luftfeuchtigkeit
00:00 +6°C° 0 mm 5 m/S 746 mmHg 88%
01:00 +6°C° 0 mm 5 m/S 746 mmHg 88%
02:00 +5°C° 0 mm 6 m/S 746 mmHg 88%
03:00 +5°C° 0 mm 6 m/S 746 mmHg 87%
04:00 +5°C° 0 mm 6 m/S 746 mmHg 86%
05:00 +5°C° 0 mm 6 m/S 746 mmHg 85%
06:00 +7°C° 0.1 mm 6 m/S 746 mmHg 83%
07:00 +7°C° 0.1 mm 6 m/S 746 mmHg 81%
08:00 +8°C° 0.1 mm 6 m/S 746 mmHg 78%
09:00 +9°C° 0.1 mm 6 m/S 746 mmHg 76%
10:00 +9°C° 0.1 mm 6 m/S 745 mmHg 74%
11:00 +10°C° 0.1 mm 6 m/S 745 mmHg 71%
12:00 +10°C° 0.1 mm 5 m/S 745 mmHg 70%
13:00 +10°C° 0.1 mm 5 m/S 745 mmHg 70%
14:00 +10°C° 0.1 mm 5 m/S 744 mmHg 69%
15:00 +11°C° 0.1 mm 4 m/S 744 mmHg 69%
16:00 +12°C° 0.1 mm 3 m/S 744 mmHg 69%
17:00 +12°C° 0.1 mm 3 m/S 744 mmHg 69%
18:00 +12°C° 0 mm 2 m/S 743 mmHg 74%
19:00 +10°C° 0 mm 2 m/S 743 mmHg 79%
20:00 +9°C° 0 mm 2 m/S 743 mmHg 84%
21:00 +8°C° 0 mm 2 m/S 743 mmHg 85%
22:00 +9°C° 0 mm 1 m/S 743 mmHg 85%
23:00 +9°C° 0 mm 1 m/S 743 mmHg 85%

13 Mai, Donnerstag

Zeit Temperatur Niederschläge Wind Luftdruck Luftfeuchtigkeit
00:00 +8°C° 0 mm 1 m/S 743 mmHg 86%
01:00 +8°C° 0 mm 1 m/S 742 mmHg 87%
02:00 +7°C° 0 mm 1 m/S 742 mmHg 88%
03:00 +6°C° 0 mm 2 m/S 742 mmHg 88%
04:00 +6°C° 0 mm 2 m/S 743 mmHg 88%
05:00 +6°C° 0 mm 2 m/S 743 mmHg 88%
06:00 +8°C° 0 mm 2 m/S 743 mmHg 80%
07:00 +10°C° 0 mm 3 m/S 743 mmHg 73%
08:00 +12°C° 0 mm 3 m/S 743 mmHg 66%
09:00 +14°C° 0 mm 3 m/S 743 mmHg 60%
10:00 +15°C° 0 mm 4 m/S 743 mmHg 55%
11:00 +17°C° 0 mm 4 m/S 743 mmHg 49%
12:00 +18°C° 0 mm 4 m/S 742 mmHg 48%
13:00 +18°C° 0 mm 4 m/S 742 mmHg 46%
14:00 +19°C° 0 mm 4 m/S 742 mmHg 45%
15:00 +19°C° 0 mm 4 m/S 742 mmHg 49%
16:00 +19°C° 0 mm 3 m/S 742 mmHg 52%
17:00 +19°C° 0 mm 3 m/S 742 mmHg 56%
18:00 +17°C° 0 mm 3 m/S 742 mmHg 63%
19:00 +16°C° 0 mm 3 m/S 741 mmHg 71%
20:00 +14°C° 0 mm 3 m/S 741 mmHg 78%
21:00 +13°C° 0.2 mm 3 m/S 741 mmHg 81%
22:00 +13°C° 0.2 mm 3 m/S 741 mmHg 84%
23:00 +13°C° 0.2 mm 3 m/S 740 mmHg 88%

14 Mai, Freitag

Zeit Temperatur Niederschläge Wind Luftdruck Luftfeuchtigkeit
00:00 +12°C° 0.1 mm 3 m/S 740 mmHg 89%
01:00 +13°C° 0.1 mm 2 m/S 740 mmHg 90%
02:00 +13°C° 0.1 mm 2 m/S 740 mmHg 92%
03:00 +12°C° 0 mm 2 m/S 740 mmHg 92%
04:00 +12°C° 0 mm 2 m/S 740 mmHg 92%
05:00 +12°C° 0 mm 2 m/S 740 mmHg 92%
06:00 +14°C° 0 mm 2 m/S 740 mmHg 85%
07:00 +16°C° 0 mm 2 m/S 740 mmHg 79%
08:00 +17°C° 0 mm 2 m/S 740 mmHg 72%
09:00 +19°C° 0 mm 2 m/S 740 mmHg 66%
10:00 +20°C° 0 mm 3 m/S 740 mmHg 60%
11:00 +21°C° 0 mm 3 m/S 740 mmHg 54%
12:00 +22°C° 0 mm 3 m/S 740 mmHg 53%
13:00 +22°C° 0 mm 3 m/S 740 mmHg 51%
14:00 +24°C° 0 mm 3 m/S 740 mmHg 49%
15:00 +22°C° 0 mm 3 m/S 740 mmHg 51%
16:00 +22°C° 0 mm 3 m/S 740 mmHg 52%
17:00 +23°C° 0 mm 2 m/S 740 mmHg 53%
18:00 +21°C° 0 mm 2 m/S 740 mmHg 59%
19:00 +20°C° 0 mm 1 m/S 740 mmHg 65%
20:00 +18°C° 0 mm 1 m/S 740 mmHg 72%
21:00 +16°C° 0.5 mm 1 m/S 740 mmHg 77%
22:00 +15°C° 0.5 mm 1 m/S 740 mmHg 83%
23:00 +14°C° 0.5 mm 1 m/S 740 mmHg 88%

15 Mai, Samstag

Zeit Temperatur Niederschläge Wind Luftdruck Luftfeuchtigkeit
00:00 +14°C° 0.1 mm 1 m/S 740 mmHg 89%
01:00 +13°C° 0.1 mm 1 m/S 740 mmHg 90%
02:00 +13°C° 0.1 mm 1 m/S 740 mmHg 90%
03:00 +13°C° 0 mm 1 m/S 740 mmHg 90%
04:00 +13°C° 0 mm 1 m/S 740 mmHg 91%
05:00 +13°C° 0 mm 1 m/S 740 mmHg 91%
06:00 +14°C° 0 mm 2 m/S 740 mmHg 85%
07:00 +16°C° 0 mm 2 m/S 740 mmHg 80%
08:00 +17°C° 0 mm 3 m/S 740 mmHg 74%
09:00 +19°C° 0.2 mm 3 m/S 740 mmHg 70%
10:00 +20°C° 0.2 mm 3 m/S 740 mmHg 66%
11:00 +21°C° 0.2 mm 3 m/S 741 mmHg 62%
12:00 +21°C° 0.6 mm 3 m/S 740 mmHg 64%
13:00 +20°C° 0.6 mm 4 m/S 740 mmHg 65%
14:00 +20°C° 0.6 mm 4 m/S 740 mmHg 67%
15:00 +20°C° 0.3 mm 4 m/S 740 mmHg 68%
16:00 +20°C° 0.3 mm 4 m/S 741 mmHg 69%
17:00 +20°C° 0.3 mm 3 m/S 741 mmHg 70%
18:00 +19°C° 0.1 mm 3 m/S 741 mmHg 75%
19:00 +17°C° 0.1 mm 2 m/S 741 mmHg 81%
20:00 +16°C° 0.1 mm 2 m/S 741 mmHg 86%
21:00 +16°C° 0.2 mm 2 m/S 741 mmHg 87%
22:00 +15°C° 0.2 mm 1 m/S 741 mmHg 88%
23:00 +15°C° 0.2 mm 1 m/S 741 mmHg 89%
Mehr zeigen

Wir brauchen deine Erlaubnis

Meteoprog und unser Service Anbieter werden persönliche Daten aufbewahren, so wie Cookies, Geräte Bezeichnung oder ähnliche Technologien von deinem Gerät und Prozess, so wie Persönliche Daten Inhalte und Werbungen, genauso wie social Media und den Verkehr zu analysieren.

  • Aufbewahrung und/oder Zugang zu deiner Geräte Informationen.

    Cookies, Geräte Bezeichnung oder andere Informationen, können aufbewahrt oder Zugang zu deinem Gerät erhalten, für den Grund, der oben angegeben wird.

  • Personalisierte Werbung und Inhalte, Messungen, Einblick in das Publikum und Produkt Entwicklung.

    Werbungen und Inhalte können personalisiert werden, basierend auf ein Profil. Mehr Daten können besser personalisierte Werbungen und Inhalte hinzufügen. Werbung und Inhalte können gezeigt und gemessen werden. Einblicke über das Publikum, welche die Werbung gesehen haben und den Inhalt, können abgeleitet werden. So wie Daten können genutzt werden, um es zu verbessern oder die Benutzer Erfahrung zu verbessern das System und die Software.

Wenn du “Ich stimme zu” klickst, erlaubst du uns, die Cookies zu benutzen die Geräte Bezeichnung, den Web oder ähnliche Technologien zu benutzen. Deine Settings, können in deinem Gerät bei deinem Browser geändert werden.

Für den bestimmten Zweck, berechtigten Interessen beruhen darauf, mehr als auf den Inhalt. Du kannst mehr darüber in unseren Privaten und Cookie Politik lesen.